ARG1360 SABE-SAME

Flight info

Callsign ARG1360
Flight time 1h 38m
Altitude 24000
Route PAL9 NEPIS W13 NIN/N0461F380 UL405 PAPIR PAPIR3Q
Aircraft B38M/M-SDE1FGHILORVWXY/HB1

Departure

Time 2026-04-20 23:02
Airport Aeroparque Jorge Newbery (SABE)

Arrival

Time 2026-04-21 00:40
Airport Governor Francisco Gabrielli International Airport (SAME)
Time Latitude Longitude Altitude Speed Heading
2026-04-20 22:12 -34.55830 -58.41214 18 ft 0 kts 41°
2026-04-20 22:52 -34.55840 -58.41224 30 ft 2 kts 37°
2026-04-20 22:52 -34.55849 -58.41231 30 ft 1 kts
2026-04-20 22:53 -34.55858 -58.41230 30 ft 1 kts 329°
2026-04-20 22:53 -34.55865 -58.41224 29 ft 1 kts 316°
2026-04-20 22:53 -34.55869 -58.41219 29 ft 1 kts 314°
2026-04-20 22:53 -34.55872 -58.41215 29 ft 1 kts 312°
2026-04-20 22:54 -34.55876 -58.41210 29 ft 1 kts 311°
2026-04-20 22:54 -34.55876 -58.41209 29 ft 0 kts 311°
2026-04-20 22:55 -34.55875 -58.41210 29 ft 1 kts 311°
2026-04-20 22:56 -34.55866 -58.41224 29 ft 4 kts 309°
2026-04-20 22:56 -34.55854 -58.41251 29 ft 2 kts 282°
2026-04-20 22:56 -34.55855 -58.41257 29 ft 1 kts 253°
2026-04-20 22:56 -34.55874 -58.41281 29 ft 7 kts 218°
2026-04-20 22:57 -34.55905 -58.41318 29 ft 1 kts 252°
2026-04-20 22:57 -34.55905 -58.41328 29 ft 3 kts 271°
2026-04-20 22:57 -34.55896 -58.41368 29 ft 7 kts 299°
2026-04-20 22:57 -34.55876 -58.41412 29 ft 11 kts 298°
2026-04-20 22:58 -34.55839 -58.41502 29 ft 13 kts 296°
2026-04-20 22:58 -34.55793 -58.41612 29 ft 16 kts 297°
2026-04-20 22:58 -34.55741 -58.41737 29 ft 18 kts 297°
2026-04-20 22:58 -34.55683 -58.41846 29 ft 13 kts 304°
2026-04-20 22:59 -34.55628 -58.41943 29 ft 15 kts 304°
2026-04-20 22:59 -34.55564 -58.42053 29 ft 17 kts 306°
2026-04-20 22:59 -34.55498 -58.42162 29 ft 16 kts 306°
2026-04-20 22:59 -34.55430 -58.42274 29 ft 15 kts 307°
2026-04-20 23:00 -34.55379 -58.42355 29 ft 12 kts 304°
2026-04-20 23:00 -34.55360 -58.42426 29 ft 9 kts 279°
2026-04-20 23:00 -34.55373 -58.42495 29 ft 8 kts 232°
2026-04-20 23:00 -34.55396 -58.42510 29 ft 1 kts 166°
2026-04-20 23:01 -34.55421 -58.42473 29 ft 14 kts 127°
2026-04-20 23:01 -34.55610 -58.42139 30 ft 90 kts 124°
2026-04-20 23:01 -34.56110 -58.41244 99 ft 159 kts 123°
2026-04-20 23:01 -34.56791 -58.39978 552 ft 207 kts 122°
2026-04-20 23:02 -34.57493 -58.38313 1502 ft 228 kts 105°
2026-04-20 23:02 -34.57384 -58.36428 2951 ft 231 kts 66°
2026-04-20 23:02 -34.56545 -58.34843 4551 ft 212 kts 59°
2026-04-20 23:02 -34.55884 -58.33245 5603 ft 222 kts 62°
2026-04-20 23:03 -34.55177 -58.31511 5130 ft 233 kts 62°
2026-04-20 23:03 -34.54332 -58.29902 5097 ft 223 kts 47°
2026-04-20 23:03 -34.53081 -58.28822 5035 ft 221 kts 18°
2026-04-20 23:03 -34.51563 -58.28611 5056 ft 228 kts 351°
2026-04-20 23:04 -34.50130 -58.29344 6083 ft 222 kts 321°
2026-04-20 23:04 -34.49177 -58.30824 7034 ft 230 kts 291°
2026-04-20 23:04 -34.48983 -58.32781 7888 ft 242 kts 265°
2026-04-20 23:04 -34.49164 -58.34864 8651 ft 256 kts 267°
2026-04-20 23:05 -34.49310 -58.37066 9382 ft 271 kts 267°
2026-04-20 23:05 -34.49457 -58.39396 10205 ft 282 kts 268°
2026-04-20 23:05 -34.49611 -58.41772 11218 ft 281 kts 267°
2026-04-20 23:05 -34.49771 -58.44139 12228 ft 283 kts 268°
2026-04-20 23:06 -34.49928 -58.46506 13153 ft 286 kts 268°
2026-04-20 23:06 -34.50089 -58.48932 14000 ft 292 kts 268°
2026-04-20 23:06 -34.50246 -58.51439 14551 ft 305 kts 268°
2026-04-20 23:06 -34.50407 -58.54026 15274 ft 309 kts 268°
2026-04-20 23:07 -34.50580 -58.56641 16137 ft 311 kts 268°
2026-04-20 23:07 -34.50753 -58.59275 16906 ft 315 kts 268°
2026-04-20 23:07 -34.50929 -58.61939 17625 ft 320 kts 268°
2026-04-20 23:07 -34.51101 -58.64686 18077 ft 334 kts 268°
2026-04-20 23:08 -34.51276 -58.67557 18437 ft 346 kts 268°
2026-04-20 23:08 -34.51458 -58.70430 19105 ft 347 kts 268°
2026-04-20 23:08 -34.51649 -58.73364 19763 ft 349 kts 268°
2026-04-20 23:08 -34.51842 -58.76317 20408 ft 351 kts 268°
2026-04-20 23:09 -34.52037 -58.79278 21041 ft 354 kts 268°
2026-04-20 23:09 -34.52233 -58.82269 21673 ft 356 kts 268°
2026-04-20 23:09 -34.52428 -58.85265 22299 ft 358 kts 268°
2026-04-20 23:09 -34.52626 -58.88291 22916 ft 360 kts 268°
2026-04-20 23:10 -34.52823 -58.91326 23515 ft 362 kts 268°
2026-04-20 23:10 -34.53020 -58.94382 24028 ft 364 kts 268°
2026-04-20 23:10 -34.53217 -58.97444 24521 ft 366 kts 268°
2026-04-20 23:10 -34.53414 -59.00503 25013 ft 368 kts 268°
2026-04-20 23:11 -34.53614 -59.03603 25497 ft 370 kts 268°
2026-04-20 23:11 -34.53813 -59.06726 25976 ft 372 kts 268°
2026-04-20 23:11 -34.54013 -59.09865 26441 ft 374 kts 268°
2026-04-20 23:11 -34.54213 -59.13016 26957 ft 374 kts 268°
2026-04-20 23:12 -34.54415 -59.16165 27517 ft 373 kts 268°
2026-04-20 23:12 -34.54613 -59.19316 27977 ft 375 kts 268°
2026-04-20 23:12 -34.54809 -59.22418 28544 ft 373 kts 268°
2026-04-20 23:12 -34.55007 -59.25556 29146 ft 371 kts 268°
2026-04-20 23:13 -34.55203 -59.28662 29756 ft 368 kts 268°
2026-04-20 23:13 -34.55397 -59.31770 30038 ft 367 kts 268°
2026-04-20 23:13 -34.55774 -59.37885 30034 ft 364 kts 268°
2026-04-20 23:14 -34.56155 -59.44190 30026 ft 382 kts 268°
2026-04-20 23:14 -34.56549 -59.50738 30031 ft 399 kts 268°
2026-04-20 23:15 -34.56961 -59.57564 30031 ft 407 kts 268°
2026-04-20 23:15 -34.56960 -59.64405 30023 ft 405 kts 274°
2026-04-20 23:16 -34.56811 -59.71241 30031 ft 405 kts 273°
2026-04-20 23:16 -34.56688 -59.78042 30034 ft 406 kts 273°
2026-04-20 23:17 -34.56565 -59.84904 30033 ft 406 kts 273°
2026-04-20 23:17 -34.56438 -59.91782 30032 ft 407 kts 273°
2026-04-20 23:18 -34.56308 -59.98608 30035 ft 407 kts 273°
2026-04-20 23:18 -34.56173 -60.05487 30035 ft 410 kts 273°
2026-04-20 23:19 -34.56034 -60.12399 30033 ft 413 kts 274°
2026-04-20 23:19 -34.55890 -60.19369 30035 ft 412 kts 274°
2026-04-20 23:20 -34.55742 -60.26320 30036 ft 412 kts 274°
2026-04-20 23:20 -34.55590 -60.33269 30037 ft 411 kts 274°
2026-04-20 23:21 -34.55436 -60.40170 30039 ft 411 kts 274°
2026-04-20 23:21 -34.55276 -60.47109 30041 ft 411 kts 274°
2026-04-20 23:22 -34.55113 -60.54034 30036 ft 411 kts 274°
2026-04-20 23:22 -34.54946 -60.60972 30043 ft 410 kts 274°
2026-04-20 23:23 -34.54776 -60.67850 30042 ft 411 kts 274°
2026-04-20 23:23 -34.54600 -60.74823 30043 ft 411 kts 274°
2026-04-20 23:24 -34.54422 -60.81746 30053 ft 412 kts 274°
2026-04-20 23:24 -34.54240 -60.88695 30044 ft 412 kts 275°
2026-04-20 23:25 -34.53786 -60.95581 30050 ft 409 kts 283°
2026-04-20 23:25 -34.52736 -61.02333 30045 ft 409 kts 282°
2026-04-20 23:26 -34.51686 -61.09130 30047 ft 409 kts 282°
2026-04-20 23:26 -34.50638 -61.15887 30045 ft 408 kts 282°
2026-04-20 23:27 -34.49586 -61.22651 30048 ft 408 kts 282°
2026-04-20 23:27 -34.48530 -61.29411 30051 ft 408 kts 283°
2026-04-20 23:28 -34.47469 -61.36180 30057 ft 408 kts 283°
2026-04-20 23:28 -34.46410 -61.42901 30047 ft 408 kts 283°
2026-04-20 23:29 -34.45345 -61.49650 30051 ft 408 kts 283°
2026-04-20 23:29 -34.44266 -61.56432 30049 ft 408 kts 283°
2026-04-20 23:30 -34.43188 -61.63167 30049 ft 408 kts 283°
2026-04-20 23:30 -34.42104 -61.69910 30056 ft 407 kts 283°
2026-04-20 23:31 -34.41026 -61.76597 30059 ft 407 kts 283°
2026-04-20 23:31 -34.39927 -61.83388 30060 ft 412 kts 283°
2026-04-20 23:32 -34.38822 -61.90194 30063 ft 412 kts 283°
2026-04-20 23:32 -34.37715 -61.96987 30079 ft 410 kts 285°
2026-04-20 23:33 -34.36607 -62.03755 30066 ft 409 kts 285°
2026-04-20 23:33 -34.35497 -62.10517 30063 ft 409 kts 285°
2026-04-20 23:34 -34.34383 -62.17271 30069 ft 408 kts 285°
2026-04-20 23:34 -34.33275 -62.23967 30067 ft 408 kts 285°
2026-04-20 23:35 -34.31599 -62.34051 30067 ft 406 kts 285°
2026-04-20 23:36 -34.30480 -62.40756 30066 ft 405 kts 285°
2026-04-20 23:36 -34.29367 -62.47398 30076 ft 404 kts 285°
2026-04-20 23:37 -34.28249 -62.54052 30076 ft 403 kts 285°
2026-04-20 23:37 -34.27133 -62.60666 30077 ft 402 kts 285°
2026-04-20 23:38 -34.26012 -62.67289 30070 ft 401 kts 285°
2026-04-20 23:38 -34.24888 -62.73908 30078 ft 401 kts 285°
2026-04-20 23:39 -34.23769 -62.80474 30079 ft 400 kts 285°
2026-04-20 23:39 -34.22643 -62.87057 30079 ft 399 kts 285°
2026-04-20 23:40 -34.21514 -62.93636 30082 ft 398 kts 285°
2026-04-20 23:40 -34.20392 -63.00152 30080 ft 398 kts 285°
2026-04-20 23:41 -34.19259 -63.06712 30086 ft 397 kts 285°
2026-04-20 23:41 -34.18126 -63.13254 30085 ft 403 kts 285°
2026-04-20 23:42 -34.16973 -63.19879 30086 ft 403 kts 285°
2026-04-20 23:42 -34.16009 -63.25412 30087 ft 402 kts 285°
2026-04-20 23:43 -34.14663 -63.33112 30093 ft 402 kts 285°
2026-04-20 23:43 -34.13634 -63.38568 30091 ft 401 kts 286°
2026-04-20 23:44 -34.12344 -63.45118 30092 ft 400 kts 286°
2026-04-20 23:44 -34.11069 -63.51616 30093 ft 400 kts 286°
2026-04-20 23:45 -34.09781 -63.58155 30096 ft 399 kts 286°
2026-04-20 23:45 -34.08494 -63.64676 30103 ft 399 kts 286°
2026-04-20 23:46 -34.07205 -63.71183 30106 ft 399 kts 286°
2026-04-20 23:46 -34.05920 -63.77652 30101 ft 398 kts 286°
2026-04-20 23:47 -34.04624 -63.84159 30106 ft 398 kts 286°
2026-04-20 23:47 -34.03329 -63.90652 30107 ft 398 kts 286°
2026-04-20 23:48 -34.02033 -63.97127 30102 ft 398 kts 286°
2026-04-20 23:48 -34.00732 -64.03615 30107 ft 398 kts 286°
2026-04-20 23:49 -33.99427 -64.10099 30105 ft 397 kts 286°
2026-04-20 23:49 -33.98130 -64.16527 30111 ft 397 kts 286°
2026-04-20 23:50 -33.96820 -64.22998 30114 ft 397 kts 286°
2026-04-20 23:50 -33.95506 -64.29472 30116 ft 397 kts 286°
2026-04-20 23:51 -33.94198 -64.35896 30122 ft 397 kts 286°
2026-04-20 23:51 -33.92876 -64.42375 30117 ft 398 kts 286°
2026-04-20 23:52 -33.91561 -64.48802 30130 ft 383 kts 286°
2026-04-20 23:52 -33.90935 -64.51847 30126 ft 365 kts 286°
2026-04-20 23:52 -33.90341 -64.54741 30140 ft 347 kts 286°
2026-04-20 23:52 -33.89773 -64.57499 30141 ft 331 kts 286°
2026-04-20 23:53 -33.89238 -64.60101 30147 ft 323 kts 287°
2026-04-20 23:53 -33.88153 -64.65351 30125 ft 322 kts 287°
2026-04-20 23:54 -33.87068 -64.70596 30126 ft 323 kts 287°
2026-04-20 23:54 -33.85981 -64.75842 30125 ft 323 kts 286°
2026-04-20 23:55 -33.84894 -64.81070 30123 ft 323 kts 286°
2026-04-20 23:55 -33.83799 -64.86323 30130 ft 324 kts 286°
2026-04-20 23:56 -33.82700 -64.91583 30138 ft 324 kts 286°
2026-04-20 23:56 -33.81606 -64.96811 30139 ft 324 kts 286°
2026-04-20 23:57 -33.80498 -65.02085 30140 ft 325 kts 286°
2026-04-20 23:57 -33.79389 -65.07359 30147 ft 325 kts 286°
2026-04-20 23:58 -33.78286 -65.12588 30148 ft 325 kts 286°
2026-04-20 23:58 -33.77172 -65.17858 30156 ft 325 kts 286°
2026-04-20 23:59 -33.76055 -65.23136 30154 ft 325 kts 286°
2026-04-20 23:59 -33.74944 -65.28370 30160 ft 325 kts 286°
2026-04-21 00:00 -33.73823 -65.33636 30154 ft 325 kts 286°
2026-04-21 00:00 -33.72671 -65.38896 30159 ft 325 kts 287°
2026-04-21 00:01 -33.71438 -65.44126 30159 ft 325 kts 287°
2026-04-21 00:01 -33.70209 -65.49359 30154 ft 325 kts 287°
2026-04-21 00:02 -33.68987 -65.54556 30156 ft 326 kts 287°
2026-04-21 00:02 -33.67753 -65.59796 30154 ft 326 kts 287°
2026-04-21 00:03 -33.66518 -65.65027 30158 ft 326 kts 287°
2026-04-21 00:03 -33.65278 -65.70271 30157 ft 326 kts 287°
2026-04-21 00:04 -33.64034 -65.75521 30156 ft 327 kts 287°
2026-04-21 00:04 -33.62786 -65.80773 30153 ft 327 kts 287°
2026-04-21 00:05 -33.61544 -65.85992 30151 ft 327 kts 287°
2026-04-21 00:05 -33.60288 -65.91260 30156 ft 327 kts 287°
2026-04-21 00:06 -33.59038 -65.96490 30152 ft 328 kts 287°
2026-04-21 00:06 -33.57778 -66.01748 30154 ft 328 kts 287°
2026-04-21 00:07 -33.56513 -66.07022 30150 ft 329 kts 287°
2026-04-21 00:07 -33.55245 -66.12296 30150 ft 329 kts 287°
2026-04-21 00:08 -33.53980 -66.17545 30150 ft 330 kts 287°
2026-04-21 00:08 -33.52706 -66.22824 30155 ft 330 kts 287°
2026-04-21 00:09 -33.51428 -66.28106 30154 ft 330 kts 287°
2026-04-21 00:09 -33.50145 -66.33400 30154 ft 331 kts 287°
2026-04-21 00:10 -33.48807 -66.38672 30150 ft 331 kts 291°
2026-04-21 00:10 -33.47153 -66.43821 30157 ft 331 kts 290°
2026-04-21 00:11 -33.45537 -66.48963 30154 ft 332 kts 290°
2026-04-21 00:11 -33.43917 -66.54134 30149 ft 332 kts 290°
2026-04-21 00:12 -33.42298 -66.59334 30153 ft 333 kts 288°
2026-04-21 00:12 -33.41024 -66.64654 30153 ft 333 kts 287°
2026-04-21 00:13 -33.39720 -66.69979 30151 ft 333 kts 287°
2026-04-21 00:13 -33.38401 -66.75318 30154 ft 334 kts 287°
2026-04-21 00:14 -33.37090 -66.80609 30155 ft 334 kts 287°
2026-04-21 00:14 -33.35766 -66.85941 30154 ft 334 kts 287°
2026-04-21 00:15 -33.34436 -66.91282 30163 ft 335 kts 287°
2026-04-21 00:15 -33.33103 -66.96624 30159 ft 335 kts 287°
2026-04-21 00:16 -33.31764 -67.01980 30158 ft 336 kts 287°
2026-04-21 00:16 -33.30424 -67.07334 30157 ft 336 kts 287°
2026-04-21 00:17 -33.29086 -67.12663 30160 ft 337 kts 287°
2026-04-21 00:17 -33.27736 -67.18033 30151 ft 338 kts 286°
2026-04-21 00:18 -33.26377 -67.23430 30154 ft 339 kts 286°
2026-04-21 00:18 -33.24916 -67.28770 29349 ft 343 kts 288°
2026-04-21 00:18 -33.24144 -67.31485 28644 ft 345 kts 288°
2026-04-21 00:19 -33.23377 -67.34193 28033 ft 344 kts 288°
2026-04-21 00:19 -33.22610 -67.36903 27417 ft 344 kts 288°
2026-04-21 00:19 -33.21841 -67.39618 26780 ft 345 kts 288°
2026-04-21 00:19 -33.21072 -67.42332 26137 ft 346 kts 288°
2026-04-21 00:20 -33.20298 -67.45064 25472 ft 347 kts 288°
2026-04-21 00:20 -33.19520 -67.47802 24794 ft 350 kts 288°
2026-04-21 00:20 -33.18735 -67.50566 24101 ft 353 kts 288°
2026-04-21 00:20 -33.17952 -67.53318 23316 ft 356 kts 288°
2026-04-21 00:21 -33.17141 -67.56167 22473 ft 359 kts 288°
2026-04-21 00:21 -33.16335 -67.58993 21688 ft 360 kts 288°
2026-04-21 00:21 -33.15538 -67.61790 20908 ft 362 kts 288°
2026-04-21 00:21 -33.14723 -67.64646 20089 ft 365 kts 288°
2026-04-21 00:22 -33.13899 -67.67528 19231 ft 368 kts 288°
2026-04-21 00:22 -33.13067 -67.70436 18302 ft 373 kts 288°
2026-04-21 00:22 -33.12224 -67.73381 17248 ft 377 kts 289°
2026-04-21 00:22 -33.11084 -67.76220 16236 ft 382 kts 302°
2026-04-21 00:23 -33.09627 -67.78849 15506 ft 378 kts 302°
2026-04-21 00:23 -33.08174 -67.81473 14620 ft 379 kts 302°
2026-04-21 00:23 -33.06728 -67.84059 14183 ft 368 kts 303°
2026-04-21 00:23 -33.05334 -67.86545 13975 ft 353 kts 303°
2026-04-21 00:24 -33.03992 -67.88930 13730 ft 339 kts 303°
2026-04-21 00:24 -33.02702 -67.91224 13484 ft 327 kts 303°
2026-04-21 00:24 -33.01460 -67.93429 13269 ft 315 kts 302°
2026-04-21 00:24 -33.00264 -67.95550 13061 ft 303 kts 303°
2026-04-21 00:25 -32.99110 -67.97596 12881 ft 292 kts 303°
2026-04-21 00:25 -32.98012 -67.99542 12702 ft 281 kts 303°
2026-04-21 00:25 -32.96938 -68.01443 12535 ft 270 kts 303°
2026-04-21 00:25 -32.95911 -68.03263 12380 ft 260 kts 302°
2026-04-21 00:26 -32.94919 -68.05019 12233 ft 251 kts 303°
2026-04-21 00:26 -32.93937 -68.06749 11894 ft 254 kts 303°
2026-04-21 00:26 -32.92962 -68.08468 11717 ft 246 kts 303°
2026-04-21 00:26 -32.92021 -68.10126 11533 ft 238 kts 303°
2026-04-21 00:27 -32.91085 -68.11774 11107 ft 241 kts 303°
2026-04-21 00:27 -32.90158 -68.13407 10778 ft 240 kts 303°
2026-04-21 00:27 -32.89219 -68.15059 10410 ft 241 kts 303°
2026-04-21 00:27 -32.88282 -68.16708 10068 ft 240 kts 303°
2026-04-21 00:28 -32.87344 -68.18357 9690 ft 240 kts 303°
2026-04-21 00:28 -32.86408 -68.20004 9288 ft 241 kts 302°
2026-04-21 00:28 -32.85465 -68.21660 8881 ft 242 kts 302°
2026-04-21 00:28 -32.84528 -68.23306 8485 ft 245 kts 302°
2026-04-21 00:29 -32.83554 -68.25015 8183 ft 254 kts 302°
2026-04-21 00:29 -32.82552 -68.26775 7884 ft 260 kts 302°
2026-04-21 00:29 -32.81530 -68.28568 7582 ft 263 kts 301°
2026-04-21 00:29 -32.80502 -68.30373 7299 ft 265 kts 301°
2026-04-21 00:30 -32.79465 -68.32192 7008 ft 266 kts 301°
2026-04-21 00:30 -32.78424 -68.34016 6715 ft 266 kts 301°
2026-04-21 00:30 -32.77383 -68.35838 6414 ft 267 kts 301°
2026-04-21 00:30 -32.76338 -68.37670 6103 ft 267 kts 301°
2026-04-21 00:31 -32.75293 -68.39498 5796 ft 266 kts 301°
2026-04-21 00:31 -32.74270 -68.41287 5493 ft 264 kts 301°
2026-04-21 00:31 -32.73244 -68.43082 5192 ft 262 kts 301°
2026-04-21 00:31 -32.72223 -68.44867 4888 ft 261 kts 301°
2026-04-21 00:32 -32.71211 -68.46636 4700 ft 258 kts 302°
2026-04-21 00:32 -32.70195 -68.48412 4672 ft 260 kts 302°
2026-04-21 00:32 -32.69504 -68.49616 4658 ft 261 kts 302°
2026-04-21 00:32 -32.68495 -68.51378 4631 ft 261 kts 302°
2026-04-21 00:33 -32.67469 -68.53166 4607 ft 262 kts 302°
2026-04-21 00:33 -32.66446 -68.54951 4573 ft 259 kts 302°
2026-04-21 00:33 -32.65454 -68.56677 4565 ft 245 kts 302°
2026-04-21 00:33 -32.64509 -68.58323 4544 ft 240 kts 302°
2026-04-21 00:34 -32.63563 -68.59971 4518 ft 241 kts 302°
2026-04-21 00:34 -32.62633 -68.61588 4493 ft 240 kts 303°
2026-04-21 00:34 -32.61766 -68.63285 4454 ft 239 kts 287°
2026-04-21 00:34 -32.61691 -68.65185 4476 ft 232 kts 254°
2026-04-21 00:35 -32.62358 -68.66908 4491 ft 231 kts 231°
2026-04-21 00:35 -32.63526 -68.68199 4495 ft 230 kts 219°
2026-04-21 00:35 -32.64717 -68.69438 4487 ft 231 kts 220°
2026-04-21 00:35 -32.65914 -68.70709 4492 ft 231 kts 220°
2026-04-21 00:36 -32.67109 -68.71985 4493 ft 231 kts 221°
2026-04-21 00:36 -32.68305 -68.73271 4499 ft 232 kts 220°
2026-04-21 00:36 -32.69469 -68.74524 4519 ft 218 kts 221°
2026-04-21 00:36 -32.70553 -68.75693 4500 ft 200 kts 220°
2026-04-21 00:37 -32.71518 -68.76737 4352 ft 178 kts 220°
2026-04-21 00:37 -32.72397 -68.77691 4143 ft 166 kts 220°
2026-04-21 00:37 -32.73214 -68.78592 3976 ft 156 kts 223°
2026-04-21 00:37 -32.74097 -68.79201 3841 ft 145 kts 194°
2026-04-21 00:38 -32.75100 -68.79313 3671 ft 145 kts 179°
2026-04-21 00:38 -32.76103 -68.79264 3508 ft 144 kts 178°
2026-04-21 00:38 -32.77104 -68.79257 3335 ft 143 kts 179°
2026-04-21 00:38 -32.78096 -68.79242 3079 ft 143 kts 179°
2026-04-21 00:39 -32.79071 -68.79240 2894 ft 138 kts 179°
2026-04-21 00:39 -32.80030 -68.79260 2777 ft 138 kts 178°
2026-04-21 00:39 -32.80973 -68.79245 2594 ft 138 kts 183°
2026-04-21 00:39 -32.81933 -68.79269 2340 ft 137 kts 179°
2026-04-21 00:40 -32.82796 -68.79283 2313 ft 96 kts 180°
2026-04-21 00:40 -32.83245 -68.79291 2317 ft 45 kts 181°
2026-04-21 00:40 -32.83566 -68.79294 2317 ft 46 kts 180°
2026-04-21 00:40 -32.83880 -68.79296 2320 ft 45 kts 181°
2026-04-21 00:41 -32.84188 -68.79301 2322 ft 44 kts 181°
2026-04-21 00:41 -32.84275 -68.79352 2322 ft 8 kts 274°
2026-04-21 00:41 -32.84249 -68.79421 2323 ft 14 kts 297°
2026-04-21 00:41 -32.84185 -68.79564 2322 ft 26 kts 300°
2026-04-21 00:42 -32.84055 -68.79732 2318 ft 29 kts 353°
2026-04-21 00:42 -32.83638 -68.79693 2317 ft 102 kts 13°
2026-04-21 00:42 -32.82828 -68.79414 2603 ft 115 kts 33°